This is the latest recevied weather packets stored in our database for station/object N0KTA-2. If no packets are shown the sender has not sent any weather packets the latest 10 day(s).
| Time | Temp. | Humidity | Pressure | Rain* | Wind** | Luminosity | Snow |
|---|---|---|---|---|---|---|---|
| 1777775365 | 13.89° C | 46% | 1015 hPa | 0 mm | - | - | - |
| 1777774765 | 14.44° C | 47% | 1014.9 hPa | 0 mm | - | - | - |
| 1777774165 | 15° C | 52% | 1014.9 hPa | 0 mm | - | - | - |
| 1777773564 | 15.56° C | 51% | 1015 hPa | 0 mm | - | - | - |
| 1777772965 | 16.11° C | 48% | 1014.9 hPa | 0 mm | - | - | - |
| 1777772364 | 16.67° C | 44% | 1014.9 hPa | 0 mm | - | - | - |
| 1777771765 | 17.78° C | 45% | 1014.7 hPa | 0 mm | - | - | - |
| 1777771164 | 18.33° C | 39% | 1014.8 hPa | 0 mm | - | - | - |
| 1777770564 | 19.44° C | 34% | 1014.7 hPa | 0 mm | - | - | - |
| 1777769965 | 20.56° C | 31% | 1014.8 hPa | 0 mm | - | - | - |
| 1777769364 | 21.11° C | 30% | 1014.7 hPa | 0 mm | - | - | - |
| 1777768765 | 21.11° C | 29% | 1014.7 hPa | 0 mm | - | - | - |
| 1777768164 | 21.11° C | 27% | 1014.7 hPa | 0 mm | - | - | - |
| 1777767565 | 20.56° C | 28% | 1014.9 hPa | 0 mm | - | - | - |
| 1777766963 | 20.56° C | 29% | 1014.9 hPa | 0 mm | - | - | - |
| 1777766364 | 20.56° C | 28% | 1015.3 hPa | 0 mm | - | - | - |
| 1777765764 | 20.56° C | 27% | 1015.4 hPa | 0 mm | - | - | - |
| 1777765165 | 20.56° C | 27% | 1015.4 hPa | 0 mm | - | - | - |
| 1777764564 | 20° C | 26% | 1015.5 hPa | 0 mm | - | - | - |
| 1777763965 | 20° C | 26% | 1015.5 hPa | 0 mm | - | - | - |
| 1777763364 | 20.56° C | 27% | 1015.5 hPa | 0 mm | - | - | - |
| 1777762765 | 20.56° C | 30% | 1015.5 hPa | 0 mm | - | - | - |
| 1777762164 | 20.56° C | 29% | 1015.5 hPa | 0 mm | - | - | - |
| 1777761565 | 20.56° C | 30% | 1015.5 hPa | 0 mm | - | - | - |
| 1777760964 | 20.56° C | 31% | 1015.5 hPa | 0 mm | - | - | - |
* Rain latest hour (hover to see other rain measurements)
** Current wind speed in m/s (hover to see current wind gust speed)